Location: ??????
(42.0089°N, 44.3281°E)
Time: 17:48:47
(UTC+00:00)

USA 267 - Pass Details

Date: 29 May 2022
Orbit: 1101 x 1106 km, 123.0° (Epoch: 28 June)

Event Time Altitude Azimuth Distance (km) Brightness Sun altitude
Rises 16:49:59 0° 51° (NE) 3,924 6.0 -4.1°
Reaches altitude 10° 16:52:49 10° 40° (NE) 2,965 5.5 -4.5°
Maximum altitude 16:58:10 28° 345° (NNW) 1,936 5.3 -5.3°
Drops below altitude 10° 17:03:32 10° 290° (WNW) 2,964 7.0 -6.1°
Sets 17:06:22 0° 279° (W) 3,922 7.4 -6.5°
